Location: *
(50.8512°N, 5.6907°E)
Time: 17:50:04
(UTC+00:00)

In-Cosmos 22 Rocket - Pass Details

Date: 09 April 2020
Orbit: 790 x 888 km, 81.2° (Epoch: 24 May)

Event Time Altitude Azimuth Distance (km) Brightness Sun altitude
Rises 20:20:20 0° 346° (NNW) 3,507 8.3 -17.3°
Reaches altitude 10° 20:22:48 10° 345° (NNW) 2,566 7.5 -17.6°
Maximum altitude 20:28:39 77° 261° (W) 915 4.4 -18.3°
Enters shadow 20:32:50 20° 178° (S) 1,941 5.7 -18.8°
